FW1643 Weather Reports


Display with metric or nautical units.
time (UTC)temp
F
wind
direction
speed
MPH
gust
MPH
rain 1hr
in
rain 24hr
in
rain mn
in
humidity
%
barometer
mb
20190223031638 16 16 10.0 15.0 0.00 0.00 0.00 63 1010.1
20190223030129 17 31 9.0 14.0 0.00 0.00 0.00 63 1009.8
20190223024615 17 16 9.0 15.0 0.00 0.00 0.00 63 1009.7
20190223023154 17 14 9.0 14.0 0.00 0.00 0.00 65 1009.5
20190223021635 17 47 9.0 20.0 0.00 0.00 0.00 68 1009.5
20190223020135 17 16 11.0 17.0 0.00 0.00 0.00 69 1009.3
20190223014610 17 16 9.0 17.0 0.00 0.00 0.00 71 1009.2
20190223013134 17 29 11.0 20.0 0.00 0.00 0.00 72 1008.9
20190223011552 17 44 9.0 15.0 0.00 0.00 0.00 74 1008.5
20190223010050 17 358 9.0 16.0 0.00 0.00 0.00 76 1008.3
20190223004549 17 32 8.0 16.0 0.00 0.00 0.00 77 1008.2
20190223003123 17 360 8.0 16.0 0.00 0.00 0.00 78 1008.0
20190223001615 17 26 7.0 14.0 0.00 0.00 0.00 78 1007.8
20190223000052 17 12 8.0 14.0 0.00 0.00 0.00 79 1007.8
20190222234557 17 26 9.0 21.0 0.00 0.00 0.00 79 1007.6
20190222233100 17 18 9.0 14.0 0.00 0.00 0.00 79 1007.4
20190222231612 17 348 9.0 15.0 0.00 0.00 0.00 79 1007.2
20190222230022 17 357 10.0 13.0 0.00 0.00 0.00 79 1007.0
20190222224531 17 33 5.0 12.0 0.00 0.00 0.00 79 1006.9
20190222223040 17 21 6.0 12.0 0.00 0.00 0.00 78 1006.8
20190222221524 16 31 7.0 13.0 0.00 0.00 0.00 78 1006.7
20190222220021 16 8 7.0 17.0 0.00 0.00 0.00 78 1006.5
20190222214516 16 8 8.0 12.0 0.00 0.00 0.00 77 1006.3
20190222213013 16 22 8.0 11.0 0.00 0.00 0.00 76 1006.1
20190222211504 16 23 9.0 12.0 0.00 0.00 0.00 75 1005.9
20190222210127 17 28 6.0 15.0 0.00 0.00 0.00 75 1005.6
20190222204705 17 12 9.0 17.0 0.00 0.00 0.00 74 1005.4
20190222203323 17 357 7.0 16.0 0.00 0.00 0.00 74 1005.2
20190222201659 17 20 9.0 15.0 0.00 0.00 0.00 73 1005.1
20190222200217 17 350 8.0 14.0 0.00 0.00 0.00 73 1004.9
20190222194758 17 336 9.0 16.0 0.00 0.00 0.00 72 1004.9
20190222193136 17 34 7.0 15.0 0.00 0.00 0.00 72 1004.8
20190222191713 17 15 6.0 13.0 0.00 0.00 0.00 72 1004.6
20190222190130 17 39 9.0 14.0 0.00 0.00 0.00 71 1004.4
20190222184812 17 10 7.0 17.0 0.00 0.00 0.00 71 1004.2
20190222183137 17 359 12.0 20.0 0.00 0.00 0.00 70 1003.8
20190222181634 17 28 8.0 16.0 0.00 0.00 0.00 70 1003.5
20190222180146 17 14 7.0 13.0 0.00 0.00 0.00 71 1003.0
20190222174700 17 33 13.0 23.0 0.00 0.00 0.00 70 1002.7
20190222173200 17 29 10.0 16.0 0.00 0.00 0.00 71 1002.5
20190222171622 17 34 10.0 15.0 0.00 0.00 0.00 71 1002.2
20190222170115 17 8 10.0 16.0 0.00 0.00 0.00 71 1002.1
20190222164647 17 353 7.0 14.0 0.00 0.00 0.00 71 1001.7
20190222163118 17 14 6.0 13.0 0.00 0.00 0.00 72 1001.7
20190222161634 17 6 5.0 12.0 0.00 0.00 0.00 73 1001.4
20190222160152 17 38 9.0 15.0 0.00 0.00 0.00 72 1001.1
20190222154607 17 12 6.0 13.0 0.00 0.00 0.00 72 1000.8
20190222153052 17 10 10.0 14.0 0.00 0.00 0.00 73 1000.4
20190222151557 17 355 12.0 18.0 0.00 0.00 0.00 73 1000.1
20190222150043 17 22 9.0 16.0 0.00 0.00 0.00 72 999.8
20190222144625 18 351 11.0 16.0 0.00 0.00 0.00 72 999.6
20190222143033 18 12 11.0 19.0 0.00 0.00 0.00 70 999.2
20190222141525 18 6 10.0 18.0 0.00 0.00 0.00 70 998.9
20190222140025 18 28 14.0 22.0 0.00 0.00 0.00 70 998.7
20190222134540 18 356 9.0 15.0 0.00 0.00 0.00 72 998.5
20190222133041 19 26 11.0 18.0 0.00 0.00 0.00 69 998.2
20190222131517 19 14 9.0 20.0 0.00 0.00 0.00 65 997.8
20190222130016 19 360 11.0 17.0 0.00 0.00 0.00 66 997.6
20190222124517 19 26 10.0 18.0 0.00 0.00 0.00 68 997.3
20190222123014 20 345 8.0 15.0 0.00 0.00 0.00 68 997.1
20190222121507 20 22 12.0 19.0 0.00 0.00 0.00 66 997.0
20190222120007 20 357 8.0 19.0 0.00 0.00 0.00 66 996.7
20190222114504 20 350 7.0 14.0 0.00 0.00 0.00 68 996.4
20190222113005 20 309 8.0 17.0 0.00 0.00 0.00 68 996.2
20190222111655 20 353 9.0 19.0 0.00 0.00 0.00 68 996.1
20190222110159 20 337 8.0 17.0 0.00 0.00 0.00 68 995.9
20190222104807 20 9 8.0 18.0 0.00 0.00 0.00 69 995.5
20190222103213 20 357 11.0 18.0 0.00 0.00 0.00 67 995.4
20190222101735 20 337 8.0 19.0 0.00 0.00 0.00 67 995.3
20190222100157 20 309 12.0 21.0 0.00 0.00 0.00 68 994.9
20190222094611 19 357 13.0 23.0 0.00 0.00 0.00 66 995.0
20190222093135 20 345 14.0 20.0 0.00 0.00 0.00 68 994.7
20190222091639 20 13 10.0 18.0 0.00 0.00 0.00 68 994.7
20190222090143 20 339 12.0 21.0 0.00 0.00 0.00 68 994.4
20190222084648 19 321 10.0 25.0 0.00 0.00 0.00 67 994.3
20190222083107 19 336 11.0 24.0 0.00 0.00 0.00 66 994.1
20190222081647 19 357 11.0 21.0 0.00 0.00 0.00 68 993.8
20190222080119 18 328 14.0 21.0 0.00 0.00 0.00 69 993.6
20190222074603 17 334 12.0 19.0 0.00 0.00 0.00 70 993.5
20190222073104 17 320 12.0 23.0 0.00 0.00 0.00 71 993.3
20190222071619 16 351 13.0 22.0 0.00 0.00 0.00 71 993.2
20190222070125 16 311 12.0 19.0 0.00 0.00 0.00 71 993.0
20190222064611 16 308 10.0 23.0 0.00 0.00 0.00 72 992.8
20190222063109 16 306 11.0 19.0 0.00 0.00 0.00 70 992.8
20190222061617 15 326 12.0 21.0 0.00 0.00 0.00 73 992.7
20190222060103 15 306 7.0 17.0 0.00 0.00 0.00 75 992.6
20190222054551 15 314 7.0 15.0 0.00 0.01 0.00 78 992.6
20190222053101 14 307 7.0 13.0 0.00 0.01 0.00 79 992.4
20190222051538 14 303 9.0 15.0 0.00 0.01 0.00 79 992.3
20190222050034 14 293 6.0 12.0 0.00 0.01 0.00 79 992.3
20190222044554 14 307 7.0 14.0 0.00 0.01 0.00 78 992.0
20190222043057 14 316 8.0 15.0 0.00 0.01 0.00 77 991.9
20190222041526 14 317 5.0 17.0 0.00 0.01 0.00 77 991.5
20190222040021 15 306 10.0 15.0 0.00 0.01 0.00 78 991.3
20190222034544 15 301 10.0 17.0 0.00 0.01 0.00 79 991.2
20190222033013 15 313 8.0 21.0 0.00 0.01 0.00 79 991.1